Regional Weather Roundup
Issued by NWS

Home | Current Version | Previous Version | Text Only | Print | Product List | Glossary On
Versions: 1 2 3 4 5 6 7 8 9 10 11 12 13 14 15 16 17 18 19 20 21 22 23 24 25 26 27 28 29 30 31 32 33 34 35 36 37 38 39 40 41 42 43 44 45 46 47 48 49 50
000
ASUS43 KDTX 021810
RWRMI
MICHIGAN HOURLY REGIONAL WEATHER ROUNDUP
NATIONAL WEATHER SERVICE DETROIT/PONTIAC MI
200 PM EDT SUN AUG 02 2015

NOTE: "FAIR" INDICATES FEW OR NO CLOUDS BELOW 12,000 FEET WITH NO
SIGNIFICANT WEATHER AND/OR OBSTRUCTION TO VISIBILITY.

MIZ047>049-052>055-059>063-066>070-074>076-081>083-021900-
SOUTHEAST LOWER MICHIGAN

CITY           SKY/WX    TMP DP  RH WIND       PRES   REMARKS
ADRIAN         SUNNY     87  63  44 SW18G28   29.83F
6HR MIN TEMP:  65; 6HR MAX TEMP:  87;

ALMA           PTSUNNY   87  65  47 SW16G32   29.72F
ANN ARBOR      SUNNY     88  65  46 SW20G28   29.80F HX  90
BAD AXE        PTSUNNY   82  67  60 SW17G29   29.70F
6HR MIN TEMP:  63; 6HR MAX TEMP:  82;

DETROIT CITY   SUNNY     89  60  37 SW20G35   29.79F
6HR MIN TEMP:  70; 6HR MAX TEMP:  89;

DETROIT        MOSUNNY   90  63  40 SW20G29   29.81F HX  91
6HR MIN TEMP:  68; 6HR MAX TEMP:  90;

FLINT          SUNNY     90  63  40 SW16G28   29.75F HX  91
6HR MIN TEMP:  68; 6HR MAX TEMP:  90;

GROSSE ILE     SUNNY     86  64  48 SW16G23   29.80F
HILLSDALE      SUNNY     86  63  46 SW12G21   29.85F
6HR MIN TEMP:  69; 6HR MAX TEMP:  86;

HOWELL         SUNNY     89  58  34 SW20G28   29.79F

CITY           SKY/WX    TMP DP  RH WIND       PRES   REMARKS
JACKSON        SUNNY     86  64  47 SW15G28   29.82S
6HR MIN TEMP:  67; 6HR MAX TEMP:  87;

LAMBERTVILLE   SUNNY     87  63  45 SW8G26    29.84F
6HR MIN TEMP:  70; 6HR MAX TEMP:  87;

LANSING        SUNNY     89  65  44 SW21G29   29.77F HX  91
6HR MIN TEMP:  67; 6HR MAX TEMP:  89;

LAPEER         NOT AVBL
MASON          SUNNY     85  64  50 SW15G24   29.79F
MONROE         SUNNY     87  66  48 SW17G23   29.81F
MT. CLEMENS    MOSUNNY   90  62  39 SW20G30   29.76F HX  90
6HR MIN TEMP:  69; 6HR MAX TEMP:  90;

PONTIAC        MOSUNNY   88  59  37 SW15G23   29.78F
6HR MIN TEMP:  67; 6HR MAX TEMP:  88;

PORT HOPE        N/A     82  68  62 SW13G28   29.67F
6HR MIN TEMP:  65; 6HR MAX TEMP:  84;

PORT HURON     MOSUNNY   82  68  61 S14G20    29.76F
TRI CITIES     PTSUNNY   87  69  54 SW26G35   29.68F HX  91
6HR MIN TEMP:  66; 6HR MAX TEMP:  88;

YPSILANTI      SUNNY     93  64  38 SW21G31   29.81F HX  94
6HR MIN TEMP:  69; 6HR MAX TEMP:  93;

$$
MIZ043>046-050>051-056>058-064>065-071>073-077>080-021900-
SOUTHWEST LOWER MICHIGAN

CITY           SKY/WX    TMP DP  RH WIND       PRES   REMARKS
BATTLE CREEK   SUNNY     89  66  46 SW22G29   29.82S HX  91
6HR MIN TEMP:  67; 6HR MAX TEMP:  89;

BENTON HARBOR  SUNNY     88  67  49 SW21G32   29.79F HX  91
6HR MIN TEMP:  72; 6HR MAX TEMP:  89;

BIG RAPIDS     PTSUNNY   81  68  65 W13G21    29.72F
6HR MIN TEMP:  64; 6HR MAX TEMP:  84;

COLDWATER      SUNNY     85  67  54 SW16G23   29.83F
6HR MIN TEMP:  65; 6HR MAX TEMP:  85;

HOLLAND        PTSUNNY   86  66  51 SW22G32   29.78F
6HR MIN TEMP:  74; 6HR MAX TEMP:  88;

GRAND RAPIDS   PTSUNNY   89  66  46 SW25G32   29.77F HX  91
6HR MIN TEMP:  70; 6HR MAX TEMP:  89;

KALAMAZOO      SUNNY     89  66  46 W18       29.81F HX  91
6HR MIN TEMP:  68; 6HR MAX TEMP:  89;

MARSHALL       MOSUNNY   87  68  52 SW15G22   29.81F HX  90
MUSKEGON       CLOUDY    80  66  62 S16G28    29.74F
6HR MIN TEMP:  73; 6HR MAX TEMP:  82;

$$
MIZ016>042-021900-
NORTHERN LOWER MICHIGAN

CITY           SKY/WX    TMP DP  RH WIND       PRES   REMARKS
ALPENA         TSTM      64  61  90 SE8       29.67F FOG
6HR MIN TEMP:  63; 6HR MAX TEMP:  78; 6HR PCP:  0.11;

BEAVER ISLAND  CLOUDY    67  64  89 W10       29.64R
6HR MIN TEMP:  63; 6HR MAX TEMP:  70;

BELLAIRE       CLOUDY    70  64  83 CALM      29.63F
CADILLAC       CLOUDY    72  69  91 S8        29.67F
CHARLEVOIX     LGT RAIN  70  66  87 SW12G22   29.65S
6HR MIN TEMP:  65; 6HR MAX TEMP:  73;

FRANKFORT      CLOUDY    74  67  80 S10G17    29.62R
GRAYLING       CLOUDY    67  65  93 S3        29.70F
HARBOR SPRINGS CLOUDY    68  65  90 SW9       29.65R
HOUGHTON LAKE  CLOUDY    73  67  81 SW14G24   29.69F
6HR MIN TEMP:  70; 6HR MAX TEMP:  78; 6HR PCP:  0.05;

MANISTEE       CLOUDY    75  70  83 S13G18    29.65F
OSCODA         RAIN      75  68  79 CALM      29.64F
PELLSTON       CLOUDY    67  64  90 S5        29.63R
6HR MIN TEMP:  63; 6HR MAX TEMP:  69; 6HR PCP:  0.27;

TRAVERSE CITY  CLOUDY    79  66  64 S8        29.58F
6HR MIN TEMP:  71; 6HR MAX TEMP:  81; 6HR PCP: TRACE;

$$
MIZ007>008-015-021900-
EASTERN UPPER MICHIGAN

CITY           SKY/WX    TMP DP  RH WIND       PRES   REMARKS
KINROSS        CLOUDY    70  63  78 SW5       29.59F
6HR MIN TEMP:  64; 6HR MAX TEMP:  73;

MACKINAC ISLAN   N/A     67  64  92 S13       29.60F
NEWBERRY       CLOUDY    70  65  85 SW8       29.58F
6HR MIN TEMP:  63; 6HR MAX TEMP:  72; 6HR PCP:  0.07;

S. S. MARIE    PTSUNNY   72  63  73 S8        29.57F
6HR MIN TEMP:  67; 6HR MAX TEMP:  73; 6HR PCP:  0.08;

$$
MIZ004>006-011>014-085-021900-
CENTRAL UPPER MICHIGAN

CITY           SKY/WX    TMP DP  RH WIND       PRES   REMARKS
MANISTIQUE     RAIN      66  63  88 S8        29.63R
ESCANABA       CLOUDY    66  64  94 SE5       29.49F
6HR MIN TEMP:  63; 6HR MAX TEMP:  70;

MENOMINEE      CLOUDY    77  66  69 S5        29.57F
6HR MIN TEMP:  66; 6HR MAX TEMP:  77;

SAWYER-GWINN   LGT RAIN  66  64  94 NW5       29.64R
$$
MIZ001>003-009>011-084-021900-
WESTERN UPPER MICHIGAN

CITY           SKY/WX    TMP DP  RH WIND       PRES   REMARKS
IRON MOUNTAIN  HVY RAIN  65  63  93 S7G17     29.64R VSB 1
6HR MIN TEMP:  64; 6HR MAX TEMP:  73; 6HR PCP:  0.30;

HOUGHTON       CLOUDY    68  56  65 NW10      29.58F
6HR MIN TEMP:  59; 6HR MAX TEMP:  72; 6HR PCP: TRACE;

COPPER HARBOR    N/A     67  60  78 N17       29.58R
6HR MIN TEMP:  61; 6HR MAX TEMP:  72;

IRONWOOD       CLOUDY    70  61  73 W8        29.61S
6HR MIN TEMP:  64; 6HR MAX TEMP:  72;

$$

ABBREVIATIONS USED IN REMARKS
   TC - TEMPERATURE IN CELSIUS
  WCI - WIND CHILL INDEX
   HX - HEAT INDEX
  VSB - VISIBILITY




USA.gov is the U.S. government's official web portal to all federal, state and local government web resources and services.